This is the latest recevied weather packets stored in our database for station/object SP3ZBZ-13. If no packets are shown the sender has not sent any weather packets the latest 1 day(s).
| Time | Temp. | Humidity | Pressure | Rain* | Wind** | Luminosity | Snow |
|---|---|---|---|---|---|---|---|
| 1778022278 | 10° C | 92% | 1003.8 hPa | - | 2.24 m/s, 28° | - | - |
| 1778021377 | 10° C | 93% | 1003.8 hPa | - | 2.24 m/s, 348° | - | - |
| 1778020476 | 9.44° C | 93% | 1003.9 hPa | - | 1.79 m/s, 24° | - | - |
| 1778019575 | 9.44° C | 93% | 1004 hPa | - | 1.79 m/s, 54° | - | - |
| 1778018674 | 9.44° C | 92% | 1004 hPa | - | 1.79 m/s, 0° | - | - |
| 1778017773 | 10° C | 93% | 1004.1 hPa | - | 1.79 m/s, 22° | - | - |
| 1778016872 | 10° C | 92% | 1004 hPa | - | 1.79 m/s, 36° | - | - |
| 1778015971 | 10° C | 92% | 1004.1 hPa | - | 1.79 m/s, 0° | - | - |
| 1778015070 | 10° C | 91% | 1004.2 hPa | - | 1.79 m/s, 24° | - | - |
| 1778014169 | 10.56° C | 93% | 1004.1 hPa | - | 1.34 m/s, 0° | - | - |
| 1778013269 | 10.56° C | 93% | 1004.2 hPa | - | 1.79 m/s, 48° | - | - |
| 1778012367 | 11.11° C | 92% | 1004.2 hPa | - | 1.79 m/s, 36° | - | - |
| 1778011467 | 11.11° C | 92% | 1004.1 hPa | - | 1.79 m/s, 357° | - | - |
| 1778010565 | 11.11° C | 92% | 1004.1 hPa | - | 1.34 m/s, 36° | - | - |
| 1778009665 | 11.67° C | 91% | 1004.2 hPa | - | 1.34 m/s, 24° | - | - |
| 1778008764 | 11.67° C | 91% | 1004.4 hPa | - | 1.34 m/s, 355° | - | - |
| 1778007862 | 11.67° C | 90% | 1004.4 hPa | - | 0.89 m/s, 348° | - | - |
| 1778006961 | 11.67° C | 90% | 1004.4 hPa | - | 1.34 m/s, 0° | - | - |
| 1778006060 | 11.67° C | 90% | 1004.3 hPa | - | 1.34 m/s, 0° | 1 W/m² | - |
| 1778005159 | 12.22° C | 90% | 1004.1 hPa | - | 1.79 m/s, 1° | 3 W/m² | - |
| 1778004258 | 12.22° C | 88% | 1004.3 hPa | - | 1.79 m/s, 12° | 6 W/m² | - |
| 1778003357 | 12.78° C | 88% | 1004.1 hPa | - | 1.79 m/s, 30° | 16 W/m² | - |
| 1778002456 | 12.78° C | 88% | 1004.1 hPa | - | 1.79 m/s, 6° | 31 W/m² | - |
| 1778001555 | 12.78° C | 88% | 1004.2 hPa | - | 1.34 m/s, 342° | 44 W/m² | - |
| 1778000654 | 12.78° C | 87% | 1004.1 hPa | - | 1.79 m/s, 21° | 54 W/m² | - |
* Rain since midnight (hover to see other rain measurements)
** Current wind speed in m/s (hover to see current wind gust speed)